Wetbulb
49.65 49.90 50.31 50.60 50.80 50.75 49.38 43.71 33.88 45.50 47.56 35.60 35.38 30.69 34.06 38.53 37.80 41.21 39.11 39.82 38.41 37.37 38.21 37.29 40.44 40.07 42.49 46.60 46.11 41.53 44.21 42.05 36.53 39.12 45.60 47.98 45.22 42.40 43.40 35.18 35.68 37.67 32.44 34.20
49.12 49.33 49.49 50.10 50.37 50.51 47.20 39.25 38.30 45.87 44.78 30.20 30.27 34.97 34.84 36.83 36.49 37.60 37.58 36.66 39.52 41.00 38.20 34.94 42.26 43.03 46.92 47.03 44.67 42.10 44.31 39.57 33.25 36.33 42.65 45.49 42.37 43.75 44.42 44.82 41.70 35.99 29.23 34.00
49.24 49.46 49.61 49.60 49.94 50.59 47.74 37.57 31.65 38.86 40.79 38.21 32.18 31.51 32.29 33.27 38.54 38.36 39.77 38.21 39.26 38.50 37.98 40.28 41.06 42.15 46.41 46.52 46.25 46.52 46.11 41.47 38.07 32.56 37.75 42.96 39.78 42.65 43.64 42.27 33.24 35.49 35.96 39.70
48.91 49.43 49.46 49.61 50.04 50.05 47.49 37.08 34.25 36.74 32.50 33.58 34.31 34.60 34.62 32.01 32.76 37.47 39.61 36.94 37.01 36.49 35.13 37.32 38.83 43.22 44.60 45.81 46.57 45.03 43.96 37.17 39.89 40.53 43.74 44.39 43.24 42.24 42.21 41.67 42.44 36.73 39.73 41.44
47.96 48.58 48.69 49.00 49.38 50.00 44.83 32.24 35.02 37.23 34.19 37.17 34.59 34.63 33.35 33.38 34.79 36.34 34.29 34.10 36.81 38.77 36.53 38.45 38.04 41.89 42.57 40.73 44.76 42.71 43.99 37.32 40.41 38.47 42.96 43.64 41.65 43.14 42.70 42.81 41.93 40.85 43.88 42.50
47.41 47.75 48.07 48.54 48.95 49.14 44.17 40.07 41.08 38.52 35.08 34.98 33.20 32.33 33.39 35.06 37.26 38.02 39.51 37.77 36.60 36.28 38.46 44.62 45.85 45.47 45.11 44.51 42.38 40.61 41.32 39.68 38.13 33.53 40.42 40.69 33.56 40.47 41.82 43.46 43.52 42.24 37.63 42.02
47.24 47.38 47.35 47.68 48.21 48.32 43.13 40.19 40.71 36.97 31.63 34.26 33.53 34.99 35.72 35.32 37.10 35.29 39.50 39.65 37.33 40.49 48.78 48.41 47.17 45.77 44.47 43.84 44.11 44.84 41.51 40.48 38.19 33.53 34.54 28.67 39.32 46.02 46.08 43.79 44.73 44.34 43.40 43.70
47.17 46.99 46.95 47.12 47.39 48.19 45.54 42.77 41.23 38.11 32.31 34.62 35.81 35.39 35.67 36.87 38.04 38.01 38.32 40.64 41.77 42.93 46.68 40.21 37.71 37.10 38.27 39.10 43.31 43.87 43.83 41.43 33.57 32.66 32.74 37.46 41.10 43.63 43.42 42.22 41.25 44.93 43.16 44.66
46.80 46.43 46.94 46.91 47.18 47.91 45.59 43.20 44.61 41.91 35.67 34.13 38.90 36.41 37.00 33.85 33.84 35.18 37.89 43.08 43.08 42.55 39.41 36.53 31.21 30.35 35.01 35.27 38.17 43.79 43.23 42.09 37.14 33.12 30.06 28.05 38.75 45.33 48.09 46.56 35.02 46.25 46.32 45.33
47.26 47.35 47.01 46.99 46.68 47.08 45.45 42.33 44.67 43.03 37.09 39.53 40.74 36.86 36.47 39.49 37.18 34.58 37.16 38.37 39.23 43.64 32.83 31.58 29.05 29.27 37.82 32.03 32.03 32.27 32.34 33.85 31.35 30.77 31.85 35.92 44.74 46.87 48.29 35.72 35.44 47.20 47.51 46.18
47.10 47.30 47.26 47.08 46.55 46.79 45.35 43.08 45.60 43.49 39.71 40.62 43.64 43.46 39.86 39.96 39.20 34.08 36.97 36.97 37.18 35.79 34.18 32.67 30.94 26.88 35.63 33.97 38.18 35.95 34.15 32.93 31.88 32.64 32.01 30.44 47.29 45.72 40.82 43.14 46.73 48.00 47.05 47.80
46.38 46.80 46.80 46.78 46.63 46.83 46.01 40.66 46.38 49.19 43.24 41.82 46.26 45.67 46.42 45.09 43.98 41.22 39.70 37.85 39.12 38.79 36.32 37.95 35.26 30.99 29.77 33.74 26.36 41.35 34.03 38.70 36.38 38.09 35.89 44.95 47.62 46.58 48.44 49.90 48.84 48.72 48.18 48.37
46.38 46.75 46.79 46.70 46.96 47.25 45.54 43.74 46.05 46.12 42.17 40.55 40.72 40.77 47.38 49.89 47.93 47.54 39.70 39.16 43.92 42.82 45.42 41.65 37.86 31.65 35.75 28.73 31.48 33.70 41.79 44.77 39.91 40.58 43.56 44.80 47.02 49.19 50.03 50.44 49.51 50.48 49.28 48.90
46.59 46.36 46.45 46.66 47.09 46.95 46.74 44.74 46.27 45.50 41.95 33.96 38.08 47.44 44.85 50.79 49.62 47.99 47.23 46.14 46.46 44.85 44.35 40.87 37.65 31.39 40.32 33.21 37.45 36.17 41.91 44.62 42.69 41.13 44.77 45.57 46.76 47.72 48.61 49.58 50.64 50.75 50.68 50.00
46.45 46.70 46.89 47.18 47.08 47.07 46.63 46.82 46.91 47.68 41.14 33.37 38.37 44.76 46.21 48.31 46.98 46.48 46.80 45.92 43.67 40.58 39.55 37.71 36.89 38.95 37.99 37.81 38.58 36.48 41.68 40.82 39.35 37.07 45.07 44.37 45.63 48.10 49.12 48.38 49.21 50.01 50.03 49.31
46.74 47.04 47.45 47.34 47.52 47.32 45.13 39.20 45.40 48.35 47.70 40.15 32.81 42.53 42.59 43.84 44.90 44.79 44.37 44.04 43.54 42.09 38.72 36.64 41.63 43.45 40.34 28.54 30.66 40.95 43.17 44.04 43.88 41.51 45.73 47.77 49.13 49.79 49.44 47.84 48.40 49.24 48.64 49.40
46.52 46.55 46.90 46.73 46.61 45.81 41.38 37.99 42.12 47.21 46.57 39.09 33.46 33.65 41.23 43.88 43.05 41.53 41.98 43.32 41.70 41.37 42.50 39.76 41.79 41.46 40.64 29.34 30.63 41.14 43.79 45.38 46.27 46.50 47.19 44.91 46.13 45.40 47.64 47.88 48.54 48.07 48.40 47.97
46.52 46.49 46.41 46.43 46.66 46.01 41.59 44.48 46.76 47.26 43.67 42.00 29.79 31.92 36.50 43.19 36.90 35.38 41.21 38.28 39.27 40.70 40.66 40.12 40.17 41.78 37.80 30.55 39.51 41.74 44.58 46.40 45.68 46.48 46.56 45.75 48.59 47.93 46.72 47.07 46.32 45.19 44.62 44.67
45.99 45.92 46.33 45.28 43.93 39.55 41.16 45.56 46.18 46.87 42.61 33.09 30.96 28.18 27.05 41.45 37.69 37.86 37.64 39.37 29.05 40.70 35.97 37.86 40.84 36.77 34.10 37.30 38.03 38.80 39.90 41.84 43.86 46.31 45.87 46.25 45.63 45.75 45.00 44.65 44.29 42.75 41.78 42.00
45.94 45.10 40.03 35.31 40.65 45.66 45.05 42.96 38.19 38.86 38.26 38.36 31.09 35.19 31.45 38.71 36.32 31.90 32.45 31.35 30.75 30.85 34.05 39.82 34.43 32.75 35.82 36.37 37.69 37.50 38.20 39.27 40.25 41.57 41.24 42.22 42.14 40.87 38.04 36.45 37.37 36.69 33.82 30.51
43.01 37.71 36.69 41.56 44.86 42.95 37.95 30.88 31.57 33.66 29.93 34.10 33.22 34.89 32.40 37.70 33.07 32.52 33.85 32.30 32.09 26.44 29.97 33.09 31.99 28.69 32.09 33.80 34.47 34.86 36.73 37.37 36.94 37.73 37.14 37.03 38.86 36.28 33.76 31.49 30.48 29.35 27.95 25.80
41.82 40.51 42.67 41.96 38.80 35.13 30.26 28.87 30.84 29.68 28.27 32.41 30.78 32.52 35.03 31.43 37.77 33.32 33.64 31.48 31.41 26.76 34.08 29.37 26.84 27.56 30.56 30.69 30.55 30.78 32.27 33.68 33.56 33.98 33.11 32.67 31.73 30.94 29.32 27.84 26.65 26.02 25.84 25.45
43.89 41.41 35.07 34.99 31.15 27.92 24.61 24.07 24.20 26.69 30.94 34.07 31.86 32.80 31.46 33.47 35.67 30.73 32.79 29.35 30.99 34.86 30.35 24.63 25.17 28.54 28.71 28.90 29.11 28.37 29.45 29.62 29.33 28.92 28.98 28.41 27.50 27.82 26.85 25.20 25.55 25.24 24.28 24.24
35.35 31.58 21.70 24.36 22.38 24.54 23.18 25.02 26.75 30.00 30.85 29.44 31.78 28.43 31.60 33.37 30.90 31.38 30.31 31.94 31.74 27.78 23.33 20.43 24.94 27.33 27.96 28.47 28.84 27.41 27.20 27.65 27.33 26.94 26.92 26.16 25.57 24.86 25.20 25.03 25.20 24.11 23.14 23.46
25.12 25.22 21.51 21.39 27.18 27.34 27.68 28.85 29.23 29.51 30.02 29.76 33.28 33.67 34.96 32.06 31.20 31.59 30.51 28.75 21.19 20.68 19.20 23.95 26.10 28.22 28.47 28.12 28.50 27.80 27.29 26.99 26.39 26.12 24.99 24.31 24.05 23.51 23.15 24.07 24.05 23.55 22.74 22.35
24.47 22.25 19.24 21.49 19.10 15.73 23.66 25.01 26.08 29.50 28.55 29.52 31.66 31.86 30.73 29.26 26.25 23.73 20.80 20.77 16.21 18.49 22.29 25.35 27.32 26.70 27.11 27.10 27.46 27.35 27.12 26.16 25.20 24.99 24.55 23.97 23.19 22.81 23.10 23.72 23.70 23.15 22.99 21.83
25.28 21.28 21.85 21.74 21.71 21.19 23.63 26.19 25.78 29.43 27.94 28.53 29.87 21.50 24.03 29.49 22.20 18.75 21.69 17.42 19.39 21.92 22.57 23.32 24.32 26.03 25.88 26.00 25.77 25.60 25.38 24.81 24.78 24.69 24.59 24.33 24.87 24.12 22.94 21.43 22.82 23.14 22.45 20.95
MSLP
1006.31 1006.73 1007.21 1007.85 1008.61 1009.58 1010.45 1010.86 1011.15 1011.43 1012.38 1013.11 1011.56 1009.11 1009.56 1009.37 1008.15 1007.90 1006.97 1006.30 1005.54 1004.60 1003.82 1003.17 1002.04 1000.67 999.88 999.48 999.95 1000.76 1001.63 1003.14 1002.87 1001.96 1001.01 1000.06 1000.83 1001.83 1002.93 1004.28 1005.53 1005.85 1006.27 1004.87
1004.64 1005.06 1005.64 1006.31 1007.13 1008.10 1008.82 1009.26 1010.39 1010.63 1010.95 1009.88 1008.74 1009.12 1009.25 1009.14 1008.54 1007.85 1006.58 1006.33 1005.33 1004.42 1004.05 1004.03 1001.59 1000.33 999.92 999.37 999.90 1000.80 1001.91 1003.36 1004.11 1002.40 1000.95 999.43 999.99 1000.98 1001.92 1003.07 1004.38 1005.01 1005.39 1004.25
1002.87 1003.29 1003.83 1004.62 1005.54 1006.48 1007.45 1008.45 1009.10 1009.42 1009.21 1007.88 1007.82 1009.21 1008.76 1008.44 1008.45 1007.67 1006.69 1006.12 1005.79 1005.12 1004.01 1003.24 1002.30 1001.33 1000.10 999.77 999.81 1000.51 1001.75 1003.23 1003.93 1002.85 1001.78 1000.69 1000.32 1000.48 1001.27 1002.27 1003.45 1004.01 1003.81 1003.07
1001.22 1001.70 1002.28 1003.07 1003.90 1004.87 1005.72 1006.45 1006.17 1005.63 1005.63 1005.70 1007.97 1008.45 1007.58 1007.79 1007.03 1006.89 1006.32 1005.64 1005.57 1005.31 1004.46 1003.76 1003.20 1003.03 1002.27 1000.83 1000.27 1000.87 1002.06 1002.73 1003.18 1002.90 1001.71 1001.33 1000.68 1000.38 1000.59 1001.07 1001.78 1002.27 1002.51 1002.15
999.85 1000.35 1000.92 1001.56 1002.37 1003.52 1003.78 1004.54 1004.47 1004.73 1004.40 1005.81 1007.29 1007.42 1005.75 1005.55 1005.76 1005.35 1004.98 1005.21 1004.78 1004.81 1004.41 1004.01 1004.05 1004.60 1003.32 1002.94 1001.83 1001.65 1001.60 1002.11 1003.00 1002.84 1001.82 1001.30 1000.81 1000.04 999.89 1000.02 1000.31 1000.73 1001.00 1000.73
998.35 998.89 999.51 1000.18 1000.82 1001.90 1001.60 1002.93 1003.23 1003.16 1003.58 1005.01 1005.93 1003.64 1004.45 1005.27 1005.67 1005.02 1004.57 1004.64 1005.07 1004.40 1004.07 1004.12 1004.43 1004.87 1004.69 1003.83 1002.68 1001.90 1001.56 1002.08 1002.76 1002.75 1002.60 1001.36 1000.67 999.98 999.85 999.82 999.21 999.47 999.75 999.66
996.55 997.23 998.00 998.72 999.41 1000.21 1000.50 1001.42 1001.80 1002.62 1002.62 1003.42 1002.57 1004.06 1005.14 1005.39 1004.78 1004.74 1003.86 1003.68 1003.37 1002.66 1003.96 1004.12 1004.70 1005.16 1004.71 1003.63 1002.34 1001.50 1001.45 1002.04 1002.99 1003.39 1003.12 1001.12 999.51 998.76 999.14 999.10 998.52 998.54 998.62 998.68
994.55 995.38 996.27 997.18 998.10 999.00 1000.05 1001.05 1000.62 1001.31 1001.52 1001.21 1003.00 1003.33 1003.45 1004.58 1004.75 1004.02 1003.33 1002.42 1002.63 1003.80 1004.40 1005.05 1005.62 1005.69 1005.52 1003.76 1002.47 1002.14 1001.48 1002.41 1003.60 1004.43 1002.80 1001.22 999.40 998.64 998.60 998.28 998.17 997.73 997.86 998.01
992.55 993.45 994.52 995.68 996.82 998.01 999.62 1000.34 1000.81 1000.62 1000.52 1000.25 1000.85 1002.10 1002.70 1003.39 1003.64 1003.83 1002.85 1002.56 1002.64 1003.41 1004.42 1006.31 1005.99 1005.62 1004.96 1003.80 1002.74 1002.14 1002.16 1002.24 1003.64 1003.50 1002.76 1000.83 999.38 998.61 998.21 997.92 997.92 997.57 997.48 997.82
990.61 991.73 992.94 994.29 995.63 997.25 999.02 999.54 1000.49 1000.65 1000.34 999.81 1000.17 1000.51 1000.95 1001.73 1002.59 1002.56 1002.71 1002.55 1002.90 1002.85 1004.48 1005.87 1006.58 1005.79 1004.54 1003.52 1002.75 1002.77 1002.82 1002.98 1003.84 1004.09 1002.98 1000.76 998.74 998.09 998.08 998.38 998.86 997.40 997.20 997.53
988.86 990.19 991.61 993.19 994.75 996.53 998.28 998.91 999.80 1000.29 999.96 999.53 999.37 999.74 1000.16 1000.86 1001.52 1001.77 1002.19 1002.82 1002.68 1003.82 1004.96 1005.60 1005.63 1005.13 1004.36 1003.62 1002.31 1002.14 1002.78 1003.49 1003.72 1003.68 1002.92 1001.47 999.03 998.19 998.32 998.24 997.53 997.31 997.37 997.46
987.23 988.95 990.58 992.25 993.94 995.76 997.72 998.73 999.46 999.68 999.57 999.60 999.16 999.49 999.77 1000.26 1000.79 1001.19 1001.36 1001.12 1001.87 1003.33 1004.33 1004.53 1004.52 1004.19 1003.24 1002.77 1002.58 1001.55 1001.96 1001.69 1002.09 1001.96 1001.32 1000.35 999.43 999.42 998.31 998.04 998.03 997.71 997.28 997.46
986.44 988.10 989.79 991.84 993.62 995.39 996.98 998.00 998.99 998.96 998.93 999.89 999.86 999.62 999.35 999.46 999.97 1000.15 1000.99 1000.76 1001.16 1002.19 1002.67 1003.82 1003.53 1003.47 1002.80 1002.83 1001.99 1001.46 1000.95 1000.69 1000.75 1001.14 1000.63 1000.68 1000.25 1000.42 1000.32 998.19 997.93 998.00 997.42 997.51
986.62 988.24 990.23 991.94 993.78 995.38 996.62 997.39 998.43 998.43 999.45 999.91 1000.05 999.44 999.33 999.10 999.58 999.74 999.66 1000.08 1000.35 1001.37 1002.64 1004.07 1004.36 1003.08 1001.63 1002.07 1001.13 1000.43 1000.00 1000.02 1000.11 1000.45 1000.11 1000.55 1000.00 1000.78 999.63 998.59 998.47 998.25 998.03 997.93
987.82 989.36 991.01 992.64 994.33 995.49 996.85 997.56 998.25 998.28 999.62 999.71 999.73 999.52 1000.01 1000.53 999.95 999.89 999.91 1000.44 1001.14 1002.33 1003.43 1003.85 1003.60 1002.34 1001.73 1001.33 1000.83 1000.06 999.04 999.07 999.69 999.27 998.92 999.19 998.86 998.81 998.70 998.75 998.98 998.68 998.51 998.25
989.28 990.84 992.17 993.55 994.84 995.90 996.79 997.53 999.01 999.14 999.15 999.32 1000.15 999.73 999.85 999.91 999.90 1000.06 1000.49 1000.99 1001.61 1002.29 1003.28 1003.82 1003.84 1002.18 1001.77 1001.69 1000.99 999.35 998.50 998.11 998.28 998.57 998.17 998.44 997.99 998.33 998.49 999.04 999.31 999.22 998.86 998.60
991.60 992.75 993.95 994.97 995.73 996.37 997.16 997.62 998.12 999.06 998.36 999.97 1001.03 1000.28 1000.03 1000.20 1000.53 1000.94 1001.33 1001.75 1002.32 1002.55 1003.13 1003.47 1003.14 1003.07 1001.91 1002.19 1001.24 999.73 998.95 998.55 998.40 998.19 998.27 998.26 998.29 998.89 999.11 999.35 999.63 999.79 999.78 999.76
993.37 994.36 995.04 995.62 995.92 996.55 997.22 997.95 997.90 998.00 999.68 1000.92 1001.11 1001.14 1000.98 1000.75 1001.31 1001.84 1001.70 1002.41 1002.72 1002.67 1003.25 1003.87 1003.65 1003.39 1002.74 1002.69 1001.73 1000.93 1000.34 999.36 999.35 999.04 998.44 998.55 998.66 999.18 999.67 1000.00 1000.39 1000.81 1001.15 1001.22
995.06 995.83 996.17 996.54 996.91 997.56 998.13 998.08 998.41 999.48 1000.30 1000.90 1001.61 1001.50 1001.72 1001.44 1001.61 1001.81 1002.20 1002.17 1003.13 1002.75 1003.23 1003.61 1004.25 1003.13 1003.98 1004.61 1003.92 1003.57 1003.10 1002.45 1001.26 1000.18 999.80 999.61 999.98 1000.52 1000.89 1001.13 1001.59 1002.35 1003.12 1003.52
996.34 996.67 997.38 998.68 999.07 998.66 998.49 999.05 999.79 1000.36 1000.40 1000.88 1001.65 1001.54 1002.22 1002.28 1002.61 1002.76 1002.98 1002.73 1002.83 1003.05 1003.47 1003.42 1004.12 1004.41 1005.88 1006.18 1005.89 1005.55 1004.83 1004.06 1002.91 1001.94 1001.95 1001.88 1002.03 1002.46 1002.90 1003.73 1004.10 1004.61 1005.48 1006.32
996.93 997.76 998.76 999.74 999.55 999.27 999.65 1000.59 1001.00 1001.48 1001.64 1001.50 1001.51 1001.64 1002.33 1003.01 1003.19 1003.55 1003.74 1003.67 1003.26 1003.09 1003.16 1003.59 1004.82 1006.40 1007.23 1007.43 1007.01 1006.88 1006.41 1005.98 1005.46 1004.92 1004.53 1004.28 1003.98 1004.64 1005.16 1006.00 1006.47 1006.89 1007.74 1008.58
997.32 997.99 999.16 999.72 1000.13 1000.59 1001.11 1001.86 1001.92 1002.03 1002.12 1002.01 1002.12 1002.36 1002.69 1003.17 1003.18 1003.43 1003.93 1003.78 1003.69 1003.15 1002.93 1003.80 1006.15 1008.46 1008.92 1008.77 1008.38 1008.24 1008.03 1007.67 1007.32 1006.95 1006.76 1006.71 1006.83 1007.24 1007.59 1008.20 1008.94 1009.45 1009.67 1010.50
997.71 998.44 1000.15 1000.75 1001.89 1002.31 1002.92 1003.53 1003.53 1003.65 1003.85 1003.65 1002.91 1003.18 1003.23 1003.48 1003.48 1003.97 1003.97 1004.02 1003.75 1003.58 1004.10 1006.62 1009.10 1009.91 1010.01 1009.97 1009.31 1009.47 1009.50 1009.29 1009.03 1008.91 1008.86 1008.89 1009.09 1009.40 1009.67 1010.23 1011.09 1011.33 1011.85 1012.56
1000.14 1001.18 1002.81 1003.58 1004.63 1005.51 1006.08 1006.06 1005.87 1005.65 1005.24 1004.82 1004.17 1003.81 1003.89 1004.09 1004.26 1004.18 1004.34 1004.31 1004.54 1005.29 1006.80 1009.51 1010.73 1011.02 1010.92 1010.51 1010.61 1010.65 1010.90 1010.77 1010.69 1010.62 1010.73 1010.79 1010.76 1011.12 1011.74 1012.25 1012.74 1012.93 1013.65 1014.51
1002.99 1003.86 1005.63 1006.86 1007.33 1007.48 1007.37 1007.14 1006.64 1006.62 1006.31 1005.64 1004.72 1004.40 1004.33 1004.74 1004.95 1005.14 1005.29 1005.72 1007.63 1009.35 1010.79 1011.44 1011.91 1011.81 1011.57 1011.51 1011.70 1011.82 1012.09 1012.32 1012.51 1012.42 1012.43 1012.59 1012.82 1013.08 1013.66 1014.14 1014.48 1014.81 1015.46 1015.95
1005.56 1007.35 1008.13 1008.60 1008.59 1008.90 1008.38 1008.08 1007.65 1007.20 1006.71 1006.06 1005.55 1005.15 1005.46 1006.05 1006.88 1007.61 1008.88 1009.72 1011.59 1012.97 1013.41 1013.44 1013.23 1013.12 1013.21 1013.29 1013.14 1013.49 1013.73 1013.97 1014.13 1014.12 1014.15 1014.39 1014.63 1014.85 1015.25 1015.63 1016.07 1016.61 1017.04 1017.57
1007.75 1009.73 1010.35 1010.27 1010.22 1010.18 1009.80 1009.15 1008.66 1007.86 1007.27 1007.03 1006.96 1007.47 1008.13 1008.12 1009.38 1011.26 1012.32 1013.54 1014.63 1014.80 1015.11 1015.20 1015.00 1014.76 1014.80 1014.94 1015.14 1015.20 1015.21 1015.39 1015.62 1015.71 1015.86 1016.07 1016.36 1016.43 1016.64 1017.14 1018.02 1018.31 1018.86 1019.39
Wind_Speed
27 28 27 26 26 25 21 7 8 12 15 13 11 24 25 12 15 14 18 16 20 18 18 15 15 11 9 10 8 22 17 3 12 18 18 18 14 10 8 6 6 4 6 6
29 28 28 29 29 29 11 6 4 9 16 16 21 17 24 24 18 19 12 12 10 15 17 10 3 10 7 9 11 12 9 5 7 12 16 16 17 7 10 9 4 7 8 6
29 29 28 28 29 31 14 7 7 6 15 15 19 20 20 21 19 20 22 16 18 22 15 14 7 8 1 4 8 17 11 9 17 14 11 6 4 7 10 9 5 5 7 6
25 26 27 28 29 32 16 6 7 9 17 26 20 20 11 24 19 25 11 11 21 18 14 7 3 4 6 7 4 6 10 15 17 17 17 18 19 14 15 16 11 8 5 8
25 26 27 28 31 33 17 7 7 9 1 14 23 20 25 22 24 14 28 22 17 13 15 7 5 9 5 8 7 7 8 7 10 17 14 18 14 15 14 12 8 5 16 13
28 28 27 29 29 31 15 5 9 11 16 16 17 30 26 21 16 22 19 19 15 18 17 7 1 2 11 6 6 10 6 5 6 12 14 15 6 18 13 14 11 10 9 10
31 30 31 31 31 31 3 5 8 4 9 14 21 19 21 22 21 19 14 19 18 24 2 5 4 7 11 14 11 5 6 7 3 5 1 16 6 10 13 15 7 5 3 3
32 32 33 34 32 32 10 4 9 7 4 20 13 21 22 21 22 19 20 18 16 4 1 2 3 3 4 8 5 7 1 5 3 10 10 7 9 4 5 6 9 5 4 5
31 33 33 34 33 31 14 6 9 6 4 13 19 20 18 15 19 18 21 12 7 6 5 3 5 6 7 6 3 1 0 5 5 2 6 15 2 6 9 4 6 5 2 5
30 31 33 35 34 31 13 5 12 5 8 3 18 15 17 17 14 13 9 6 4 3 4 6 5 5 4 7 10 5 2 2 5 2 2 7 6 8 5 5 8 6 4 5
30 30 31 33 33 31 18 5 13 8 7 4 4 5 8 12 14 12 3 4 5 3 5 6 5 4 7 5 5 8 6 5 3 3 5 14 6 3 7 7 8 6 2 3
31 31 30 32 32 31 22 4 12 10 3 4 3 1 4 4 1 5 8 5 3 4 5 6 4 3 1 6 4 4 5 7 6 8 4 6 7 5 3 1 1 5 2 3
29 28 32 32 31 32 16 8 9 3 3 4 3 3 1 2 4 3 8 3 7 6 6 2 4 4 4 5 10 5 5 5 4 1 5 2 7 12 14 7 3 4 3 5
28 29 31 31 32 32 14 8 9 4 3 4 1 2 2 5 8 8 2 5 6 7 4 4 4 4 5 4 6 6 6 9 7 3 3 5 3 8 12 12 8 8 8 6
27 30 30 32 34 28 10 6 6 2 1 4 2 6 2 14 3 5 8 6 4 4 3 3 5 3 3 2 1 4 4 7 5 6 9 8 9 14 8 7 15 6 4 7
33 34 33 28 26 25 7 4 2 1 3 3 2 1 4 3 2 5 6 4 3 4 4 3 4 7 4 2 3 4 1 1 5 4 2 7 6 10 8 5 3 6 8 5
32 33 29 23 16 6 2 4 6 6 2 5 2 2 2 6 3 2 3 3 1 3 3 2 1 8 2 3 2 3 4 5 6 5 7 5 1 5 6 6 6 6 6 5
30 27 21 16 10 6 6 6 13 10 6 2 3 0 4 3 2 2 3 4 2 1 4 0 2 5 2 1 4 6 12 11 10 9 4 4 5 7 6 7 7 8 7 6
30 25 15 9 7 4 2 5 9 5 2 3 2 3 2 3 1 2 1 3 2 2 3 2 2 3 2 9 13 15 16 12 11 8 11 10 10 7 8 9 8 9 8 13
11 5 4 4 3 10 6 7 4 5 3 2 2 1 3 3 2 2 2 1 4 4 5 4 3 3 9 12 12 12 14 15 16 8 7 7 7 10 10 13 12 14 14 15
1 4 5 1 5 3 4 3 3 2 1 1 2 3 4 3 3 1 1 1 2 3 4 7 4 3 5 11 11 12 13 12 12 11 12 13 10 9 11 13 14 14 16 16
4 7 4 2 3 3 5 1 3 1 1 0 2 3 3 0 1 2 2 2 1 2 1 5 4 4 8 9 10 12 11 10 11 13 13 14 16 14 14 14 14 14 15 15
2 4 5 4 4 6 5 2 3 4 6 6 3 2 1 2 2 2 1 2 3 3 2 4 5 6 8 8 9 10 11 11 12 14 14 15 17 16 15 16 13 16 16 14
5 5 7 5 5 5 4 4 3 3 4 7 4 1 2 1 1 1 1 1 2 4 5 4 4 6 6 7 8 9 11 12 13 14 14 16 17 18 17 15 13 16 16 14
6 6 6 6 4 5 3 3 3 3 4 3 3 2 1 2 1 3 4 5 6 6 4 3 5 8 8 9 10 10 10 10 10 11 14 16 16 18 18 16 16 17 16 16
5 9 5 6 4 4 4 4 3 3 5 3 2 0 3 4 4 5 7 4 6 4 3 6 6 9 10 10 11 11 11 12 12 13 15 16 16 17 17 17 17 16 16 16
6 4 3 4 3 4 5 5 5 4 3 3 3 6 4 3 5 5 5 5 4 4 6 7 10 10 11 12 12 12 13 13 14 14 15 15 15 16 17 18 15 16 16 15
Wind_Direction
243 242 234 227 220 210 193 191 208 174 165 201 220 229 217 246 258 238 264 287 278 280 295 297 235 250 193 182 169 199 186 113 251 253 266 194 196 191 172 147 248 161 152 266
245 236 234 225 215 201 190 189 153 194 170 210 217 220 224 236 240 242 260 239 237 269 280 308 287 206 260 198 186 162 160 184 286 293 285 193 192 193 200 194 134 186 137 248
241 238 224 222 215 204 194 149 164 175 202 225 213 211 224 222 230 259 246 255 273 284 286 293 307 331 344 307 197 170 126 183 213 238 257 276 221 222 228 189 152 217 194 208
238 232 220 217 209 202 190 168 201 184 198 209 210 202 208 225 220 217 252 244 248 265 285 328 293 355 304 314 113 127 154 219 238 262 221 231 257 219 225 216 211 168 234 211
232 227 224 216 209 201 207 161 183 184 224 178 200 213 215 220 214 205 223 234 251 256 249 218 332 7 213 269 290 178 177 191 212 255 275 234 243 242 225 227 229 219 224 244
232 226 220 214 209 199 205 143 226 169 198 179 189 211 212 217 231 223 231 229 243 247 262 116 125 244 295 255 245 210 162 137 168 252 250 274 243 227 260 272 225 204 217 224
229 223 216 212 207 202 154 183 176 206 181 189 206 200 211 223 226 238 233 222 227 235 96 84 46 271 300 294 293 274 136 168 121 227 260 242 226 176 221 238 213 223 226 259
226 221 216 211 209 203 202 196 199 162 183 193 181 200 201 204 237 246 235 238 229 199 85 104 162 314 8 275 242 267 61 110 148 200 222 297 273 207 243 244 271 232 230 282
223 218 212 208 205 201 200 159 234 183 155 197 190 186 192 192 214 240 253 255 212 168 150 121 205 199 207 213 217 273 231 93 127 9 206 237 111 237 254 286 269 273 240 273
211 208 206 203 201 197 189 164 200 224 198 212 180 187 186 198 204 224 232 216 211 153 152 185 191 235 305 244 170 176 78 38 148 328 292 303 206 204 255 237 236 264 247 237
203 197 195 195 194 190 183 151 188 224 190 162 155 159 171 191 205 206 198 145 205 79 168 189 205 182 198 247 175 161 144 137 168 145 218 240 286 170 217 216 243 232 277 277
192 188 189 185 181 181 167 153 176 217 163 159 83 169 121 118 17 179 214 191 122 130 143 228 177 245 138 157 250 172 195 169 185 164 216 241 321 306 258 50 345 326 269 342
182 189 175 174 168 165 154 161 178 181 55 30 93 159 8 172 269 238 215 219 145 170 149 335 233 182 140 179 231 197 235 152 144 153 292 271 29 327 301 346 2 304 357 104
151 151 157 155 154 154 153 153 178 102 98 113 145 142 334 3 304 280 103 124 50 126 106 134 284 183 169 212 214 171 195 159 168 223 291 312 168 231 286 315 336 347 341 294
139 140 143 143 149 151 139 132 159 39 92 149 110 124 146 234 143 74 68 68 89 97 112 121 232 243 45 280 136 233 189 174 154 214 212 162 203 232 249 226 297 304 295 260
121 131 124 122 136 149 138 104 18 317 234 102 112 240 128 105 67 94 93 84 76 117 122 162 240 279 154 122 219 233 157 333 162 215 180 202 175 184 166 150 42 15 6 356
116 116 104 96 99 95 101 160 153 180 107 69 12 55 53 122 91 32 84 66 97 170 133 195 120 281 106 152 199 327 323 327 2 14 25 6 37 142 109 98 59 43 22 29
118 107 91 91 73 107 57 48 92 77 63 280 121 175 78 125 141 172 180 153 133 6 106 289 221 303 218 242 359 348 359 357 24 350 350 208 177 138 122 93 75 47 33 42
99 100 86 32 21 44 58 28 84 149 150 108 84 124 157 339 99 155 335 153 101 176 94 312 260 208 72 13 21 17 6 358 329 2 33 47 58 77 79 76 69 87 58 62
119 50 64 61 1 339 356 21 50 13 323 67 115 335 88 67 329 344 45 343 159 134 195 165 175 61 91 17 13 5 357 358 358 9 26 24 45 73 59 56 58 75 81 81
57 50 49 107 319 33 39 58 90 158 23 249 232 151 134 344 118 164 21 190 332 104 236 149 190 64 5 7 21 10 2 5 15 36 45 42 44 88 86 70 72 82 85 86
122 119 124 111 39 55 81 91 358 76 145 318 115 28 91 3 119 124 185 200 103 250 272 97 86 39 12 12 22 19 13 17 33 41 54 55 60 63 74 76 75 78 87 90
1 60 51 24 330 54 41 60 352 36 357 14 354 51 117 25 49 94 180 158 224 79 94 68 48 7 14 18 40 40 36 47 58 61 67 72 74 70 74 82 78 84 79 81
53 39 36 45 28 51 34 350 335 348 350 335 326 59 137 360 41 88 261 183 44 46 47 67 3 14 18 34 52 56 48 51 59 66 68 73 74 72 69 71 76 82 78 77
51 32 45 51 7 44 3 348 326 20 312 327 329 40 61 12 70 25 354 42 64 29 61 13 7 25 34 47 53 58 56 56 60 68 72 73 75 77 76 72 75 77 80 78
61 37 22 344 51 350 3 352 327 339 318 264 223 103 96 60 42 46 14 59 37 36 17 360 39 48 48 58 61 63 67 70 70 70 73 75 75 77 79 75 71 71 73 72
41 71 23 347 23 346 343 329 337 301 295 32 28 51 21 23 51 56 19 34 60 53 45 29 27 49 61 64 67 67 70 71 70 72 71 74 78 80 76 75 72 73 71 70